• En España
  • Lista de países
  • Para 7 días
  • Temperatura del agua
  • Mapa Satelital
  • El tiempo en el mapa
  • Informadores
  • user-avatar
    Iniciar sesión

    Tiempo cada hora Madrid

    Hoy, 22 Agosto, Martes

    Tiempo Temperatura Precipitaciones Viento Presión Humedad
    00:00 +29°C° 0 mm 3 mps 708 mmHg 45%
    01:00 +28°C° 0 mm 3 mps 708 mmHg 48%
    02:00 +27°C° 0 mm 3 mps 708 mmHg 51%
    03:00 +26°C° 0 mm 2 mps 708 mmHg 54%
    04:00 +26°C° 0 mm 2 mps 708 mmHg 57%
    05:00 +26°C° 0 mm 2 mps 708 mmHg 59%
    06:00 +25°C° 0 mm 2 mps 709 mmHg 62%
    07:00 +27°C° 0 mm 2 mps 709 mmHg 55%
    08:00 +29°C° 0 mm 2 mps 709 mmHg 49%
    09:00 +30°C° 0 mm 2 mps 709 mmHg 42%
    10:00 +32°C° 0 mm 2 mps 709 mmHg 37%
    11:00 +35°C° 0 mm 2 mps 709 mmHg 32%
    12:00 +36°C° 0 mm 2 mps 708 mmHg 27%
    13:00 +37°C° 0 mm 2 mps 708 mmHg 25%
    14:00 +38°C° 0 mm 2 mps 708 mmHg 22%
    15:00 +38°C° 0 mm 3 mps 707 mmHg 20%
    16:00 +38°C° 0 mm 2 mps 707 mmHg 21%
    17:00 +37°C° 0 mm 2 mps 707 mmHg 21%
    18:00 +37°C° 0 mm 2 mps 707 mmHg 21%
    19:00 +35°C° 0 mm 2 mps 707 mmHg 24%
    20:00 +34°C° 0 mm 2 mps 707 mmHg 27%
    21:00 +31°C° 0 mm 2 mps 707 mmHg 30%
    22:00 +31°C° 0 mm 2 mps 707 mmHg 31%
    23:00 +30°C° 0 mm 2 mps 707 mmHg 33%

    Mañana, 23 Agosto, Miércoles

    Tiempo Temperatura Precipitaciones Viento Presión Humedad
    00:00 +29°C° 0 mm 2 mps 708 mmHg 34%
    01:00 +28°C° 0 mm 2 mps 707 mmHg 36%
    02:00 +28°C° 0 mm 2 mps 707 mmHg 38%
    03:00 +27°C° 0 mm 2 mps 707 mmHg 40%
    04:00 +26°C° 0 mm 2 mps 707 mmHg 42%
    05:00 +26°C° 0 mm 2 mps 707 mmHg 43%
    06:00 +25°C° 0 mm 2 mps 707 mmHg 45%
    07:00 +27°C° 0 mm 2 mps 708 mmHg 40%
    08:00 +29°C° 0 mm 2 mps 708 mmHg 36%
    09:00 +31°C° 0 mm 1 mps 708 mmHg 31%
    10:00 +34°C° 0 mm 2 mps 708 mmHg 27%
    11:00 +35°C° 0 mm 3 mps 708 mmHg 23%
    12:00 +37°C° 0 mm 3 mps 708 mmHg 18%
    13:00 +38°C° 0 mm 3 mps 707 mmHg 17%
    14:00 +38°C° 0 mm 4 mps 707 mmHg 15%
    15:00 +40°C° 0 mm 4 mps 707 mmHg 13%
    16:00 +38°C° 0 mm 4 mps 706 mmHg 13%
    17:00 +38°C° 0 mm 3 mps 706 mmHg 14%
    18:00 +37°C° 0 mm 3 mps 706 mmHg 14%
    19:00 +36°C° 0 mm 3 mps 706 mmHg 16%
    20:00 +34°C° 0 mm 3 mps 706 mmHg 18%
    21:00 +31°C° 0 mm 3 mps 707 mmHg 19%
    22:00 +30°C° 0 mm 3 mps 707 mmHg 21%
    23:00 +29°C° 0 mm 3 mps 707 mmHg 24%

    Pasado mañana, 24 Agosto, Jueves

    Tiempo Temperatura Precipitaciones Viento Presión Humedad
    00:00 +28°C° 0 mm 3 mps 707 mmHg 26%
    01:00 +27°C° 0 mm 3 mps 707 mmHg 28%
    02:00 +27°C° 0 mm 2 mps 707 mmHg 31%
    03:00 +26°C° 0 mm 2 mps 706 mmHg 33%
    04:00 +25°C° 0 mm 2 mps 706 mmHg 35%
    05:00 +25°C° 0 mm 1 mps 707 mmHg 36%
    06:00 +24°C° 0 mm 1 mps 707 mmHg 38%
    07:00 +26°C° 0 mm 2 mps 707 mmHg 33%
    08:00 +29°C° 0 mm 2 mps 707 mmHg 27%
    09:00 +31°C° 0 mm 2 mps 708 mmHg 22%
    10:00 +33°C° 0 mm 3 mps 708 mmHg 20%
    11:00 +35°C° 0 mm 4 mps 707 mmHg 17%
    12:00 +37°C° 0 mm 5 mps 707 mmHg 14%
    13:00 +37°C° 0 mm 5 mps 707 mmHg 14%
    14:00 +39°C° 0 mm 5 mps 706 mmHg 13%
    15:00 +39°C° 0 mm 6 mps 706 mmHg 13%
    16:00 +39°C° 0 mm 6 mps 706 mmHg 13%
    17:00 +38°C° 0 mm 6 mps 706 mmHg 13%
    18:00 +36°C° 0 mm 6 mps 705 mmHg 13%
    19:00 +35°C° 0 mm 5 mps 706 mmHg 14%
    20:00 +33°C° 0 mm 4 mps 706 mmHg 15%
    21:00 +30°C° 0 mm 3 mps 706 mmHg 16%
    22:00 +29°C° 0 mm 3 mps 706 mmHg 19%
    23:00 +28°C° 0 mm 3 mps 706 mmHg 21%

    25 Agosto, Viernes

    Tiempo Temperatura Precipitaciones Viento Presión Humedad
    00:00 +27°C° 0 mm 3 mps 706 mmHg 23%
    01:00 +26°C° 0 mm 2 mps 706 mmHg 25%
    02:00 +25°C° 0 mm 2 mps 706 mmHg 28%
    03:00 +24°C° 0 mm 2 mps 706 mmHg 30%
    04:00 +24°C° 0 mm 2 mps 705 mmHg 31%
    05:00 +23°C° 0 mm 2 mps 705 mmHg 33%
    06:00 +23°C° 0 mm 1 mps 705 mmHg 34%
    07:00 +25°C° 0 mm 2 mps 706 mmHg 30%
    08:00 +27°C° 0 mm 3 mps 706 mmHg 26%
    09:00 +29°C° 0 mm 3 mps 706 mmHg 22%
    10:00 +30°C° 0 mm 4 mps 706 mmHg 19%
    11:00 +33°C° 0 mm 5 mps 706 mmHg 17%
    12:00 +34°C° 0 mm 6 mps 705 mmHg 14%
    13:00 +35°C° 0 mm 6 mps 705 mmHg 14%
    14:00 +35°C° 0 mm 7 mps 704 mmHg 13%
    15:00 +36°C° 0 mm 7 mps 704 mmHg 12%
    16:00 +35°C° 0 mm 7 mps 704 mmHg 12%
    17:00 +34°C° 0 mm 7 mps 704 mmHg 12%
    18:00 +33°C° 0 mm 7 mps 704 mmHg 11%
    19:00 +30°C° 0 mm 5 mps 704 mmHg 12%
    20:00 +28°C° 0 mm 4 mps 704 mmHg 13%
    21:00 +26°C° 0 mm 3 mps 705 mmHg 14%
    22:00 +26°C° 0 mm 3 mps 704 mmHg 17%
    23:00 +25°C° 0 mm 2 mps 704 mmHg 20%

    26 Agosto, Sábado

    Tiempo Temperatura Precipitaciones Viento Presión Humedad
    00:00 +24°C° 0 mm 2 mps 704 mmHg 22%
    01:00 +23°C° 0 mm 2 mps 704 mmHg 26%
    02:00 +21°C° 0 mm 2 mps 704 mmHg 30%
    03:00 +21°C° 0 mm 2 mps 704 mmHg 33%
    04:00 +20°C° 0 mm 2 mps 704 mmHg 36%
    05:00 +20°C° 0 mm 2 mps 704 mmHg 38%
    06:00 +19°C° 0 mm 2 mps 704 mmHg 41%
    07:00 +21°C° 0 mm 2 mps 704 mmHg 39%
    08:00 +24°C° 0 mm 3 mps 704 mmHg 37%
    09:00 +25°C° 0 mm 4 mps 705 mmHg 34%
    10:00 +27°C° 0 mm 4 mps 704 mmHg 33%
    11:00 +28°C° 0 mm 5 mps 704 mmHg 33%
    12:00 +29°C° 0 mm 6 mps 704 mmHg 32%
    13:00 +29°C° 0,1 mm 6 mps 704 mmHg 32%
    14:00 +29°C° 0,1 mm 6 mps 703 mmHg 32%
    15:00 +30°C° 0,1 mm 7 mps 703 mmHg 33%
    16:00 +29°C° 0 mm 6 mps 703 mmHg 34%
    17:00 +28°C° 0 mm 6 mps 703 mmHg 35%
    18:00 +28°C° 0 mm 6 mps 703 mmHg 37%
    19:00 +26°C° 0,1 mm 5 mps 703 mmHg 40%
    20:00 +25°C° 0,1 mm 4 mps 703 mmHg 43%
    21:00 +23°C° 0,1 mm 4 mps 704 mmHg 46%
    22:00 +22°C° 0 mm 3 mps 704 mmHg 48%
    23:00 +21°C° 0 mm 3 mps 704 mmHg 49%

    27 Agosto, Domingo

    Tiempo Temperatura Precipitaciones Viento Presión Humedad
    00:00 +20°C° 0 mm 3 mps 704 mmHg 51%
    01:00 +20°C° 0 mm 3 mps 704 mmHg 53%
    02:00 +19°C° 0 mm 2 mps 704 mmHg 55%
    03:00 +18°C° 0 mm 2 mps 704 mmHg 57%
    04:00 +18°C° 0 mm 2 mps 704 mmHg 58%
    05:00 +17°C° 0 mm 2 mps 704 mmHg 58%
    06:00 +17°C° 0 mm 2 mps 704 mmHg 59%
    07:00 +18°C° 0 mm 3 mps 705 mmHg 53%
    08:00 +20°C° 0 mm 3 mps 705 mmHg 46%
    09:00 +21°C° 0 mm 4 mps 705 mmHg 40%
    10:00 +22°C° 0 mm 4 mps 705 mmHg 35%
    11:00 +25°C° 0 mm 4 mps 705 mmHg 31%
    12:00 +26°C° 0 mm 4 mps 705 mmHg 26%
    13:00 +26°C° 0 mm 4 mps 705 mmHg 26%
    14:00 +27°C° 0 mm 4 mps 705 mmHg 25%
    15:00 +28°C° 0 mm 4 mps 704 mmHg 24%
    16:00 +27°C° 0 mm 4 mps 705 mmHg 26%
    17:00 +27°C° 0 mm 4 mps 705 mmHg 28%
    18:00 +26°C° 0 mm 4 mps 705 mmHg 30%
    19:00 +25°C° 0 mm 4 mps 705 mmHg 34%
    20:00 +22°C° 0 mm 4 mps 705 mmHg 38%
    21:00 +21°C° 0 mm 4 mps 706 mmHg 43%
    22:00 +20°C° 0 mm 3 mps 706 mmHg 45%
    23:00 +20°C° 0 mm 3 mps 706 mmHg 48%
    Mostrar más